SCP
0 0 0 0 0 0 0 0 0 0 0 0 0 0 0 0 0 0 0 0 0 0 0 0 0 0 0 0 0 0 0 0 0 0 0 0 0 0 0 0 0 0 0 0 0 0 0 0 0 0 0 0 0 0
0 0 0 0 0 0 0 0 0 0 0 0 0 0 0 0 0 0 0 0 0 0 0 0 0 0 0 0 0 0 0 0 0 0 0 0 0 0 0 0 0 0 0 0 0 0 0 0 0 0 0 0 0 0
0 0 0 0 0 0 0 0 0 0 0 0 0 0 0 0 0 0 0 0 0 0 0 0 0 0 0 0 0 0 0 0 0 0 0 0 0 0 0 0 0 0 0 0 0 0 0 0 0 0 0 0 0 0
0 0 0 0 0 0 0 0 0 0 0 0 0 0 0 0 0 0 0 0 0 0 0 0 0 0 0 0 0 0 0 0 0 0 0 0 0 0 0 0 0 0 0 0 0 0 0 0 0 0 0 0 0 0
0 0 0 0 0 0 0 0 0 0 0 0 0 0 0 0 0 0 0 0 0 0 0 0 0 0 0 0 0 0 0 0 0 0 0 0 0 0 0 0 0 0 0 0 0 0 0 0 0 0 0 0 0 0
0 0 0 0 0 0 0 0 0 0 0 0 0 0 0 0 0 0 0 0 0 0 0 0 0 0 0 0 0 0 0 0 0 0 0 0 0 0 0 0 0 0 0 0 0 0 0 0 0 0 0 0 0 0
-0 -0 0 0 0 0 0 0 0 0 0 0 0 0 0 0 0 0 0 0 0 0 0 0 0 0 0 0 0 0 0 0 0 0 0 0 0 0 0 0 0 0 0 0 0 0 0 0 0 0 0 0 0 0
0 0 0 0 0 0 0 0 0 0 0 0 0 0 0 0 0 -0 0 0 0 0 0 0 0 0 0 0 0 0 0 0 0 0 0 0 0 0 0 0 0 0 0 0 0 0 0 0 0 0 0 0 0 0
0 0 0 0 0 0 0 0 0 0 0 0 0 0 0 0 0 0 0 0 0 0 0 0 0 0 0 0 0 0 0 0 0 0 0 0 0 0 0 0 0 0 0 0 0 0 0 0 0 0 0 0 0 0
0 0 0 0 0 0 0 0 0 0 0 0 0 0 0 0 0 0 0 0 0 0 0 0 0 0 0 0 0 0 0 0 0 0 0 0 0 0 0 0 0 0 0 0 0 0 0 0 0 0 0 0 0 0
-0 0 0 -0 -0 0 0 0 0 0 0 0 0 0 0 0 0 0 0 0 0 0 0 0 0 0 0 0 0 0 0 0 0 0 0 0 0 0 0 0 0 0 0 0 0 0 0 0 0 0 0 0 0 0
-0 -0 0 0 0 0 -0 0 0 0 0 0 0 0 0 0 0 0 0 0 0 0 0 0 0 0 0 0 0 0 0 0 0 0 0 0 0 0 0 0 0 0 0 0 0 0 0 0 0 0 0 0 0 0
0 -0 0 0 0 0 0 0 -0 -0 -0 0 0 0 0 0 0 -0 0 0 0 0 0 0 0 0 0 0 0 0 0 0 0 0 0 0 0 0 0 0 0 0 0 0 0 0 0 0 0 0 0 0 0 0
-0 -0 -0 -0 -0 -0 -0 -0 -0 0 0 0 0 -0 0 -0 0 0 0 0 0 0 0 0 0 0 0 0 0 0 0 0 0 0 0 0 0 0 0 0 0 0 0 0 0 0 0 0 0 0 0 0 0 0
-0 -0 -0 0 -0 -0 -0 -0 -0 0 0 -0 0 -0 -0 0 0 0 0 0 0 0 0 0 0 0 0 0 0 0 0 0 0 0 0 0 0 0 0 0 0 0 0 0 0 0 0 0 0 0 0 0 0 0
-0 -0 -0 -0 -0 0 -0 0 0 0 -0 -0 -0 0 0 0 0 0 0 0 0 0 0 0 0 0 0 0 0 0 0 0 0 0 0 0 0 0 0 0 0 0 0 0 0 0 0 0 0 0 0 0 0 0
0 0 -0 0 -0 -0 -0 -0 -0 0 -0 -0 -0 -0 -0 -0 -0 -0 0 0 0 0 0 0 0 0 0 0 0 0 0 0 0 0 0 0 0 0 0 0 0 0 0 0 0 0 0 0 0 0 0 0 0 0
-0 0 -0 0 0 0 0 0 -0 -0 -0 -0 -0 0 0 0 0 0 0 0 0 0 0 0 0 0 0 0 0 0 0 0 0 0 0 0 0 0 0 0 0 0 0 0 0 0 0 0 0 0 0 0 0 0
0 0 -0 -0 0 0 0 0 0 0 0 0 0 0 0 0 0 0 0 0 -0 -0 -0 0 0 0 0 0 0 0 0 0 0 0 0 0 0 0 0 0 0 0 0 0 0 0 0 0 0 0 0 0 0 0
0 0 0 -0 0 0 0 0 0 0 0 0 0 0 0 0 0 0 0 0 0 0 0 0 0 0 0 0 0 0 0 0 0 0 0 0 0 0 0 0 0 0 0 0 0 0 0 0 0 0 0 0 0 0
0 0 0 0 0 0 0 0 0 0 0 0 0 0 -0 -0 -0 -0 0 -0 -0 0 0 0 0 0 0 0 0 0 0 0 0 0 0 0 0 0 0 0 0 0 0 0 0 0 0 0 0 0 0 0 0 0
0 0 0 0 0 0 0 0 0 0 0 0 0 0 0 -0 -0 -0 -0 -0 -0 0 0 0 0 0 0 0 0 0 0 0 0 0 0 0 0 0 0 0 0 0 0 0 0 0 0 0 0 0 0 0 0 0
0 0 0 0 0 0 0 0 0 0 0 0 0 0 0 0 0 0 -0 -0 0 0 0 0 0 0 0 0 0 0 0 0 0 0 0 0 0 0 0 0 0 0 0 0 0 0 0 0 0 0 0 0 0 0
0 0 0 0 0 0 0 0 0 0 0 0 0 0 0 0 0 0 0 0 0 0 0 0 0 0 0 0 0 0 0 0 0 0 0 0 0 0 0 0 0 0 0 0 0 0 0 0 0 0 0 0 0 0
0 0 0 0 0 0 0 0 0 0 0 0 0 0 0 0 0 0 0 0 0 0 0 0 0 0 0 0 0 0 0 0 0 0 0 0 0 0 0 0 0 0 0 0 0 0 0 0 0 0 0 0 0 0
0 0 0 0 0 0 0 0 0 0 0 0 0 0 0 0 0 0 0 0 0 0 0 0 0 0 0 0 0 0 0 0 0 0 0 0 0 0 0 0 0 0 0 0 0 0 0 0 0 0 0 0 0 0
0 0 0 0 0 0 0 0 0 0 0 0 0 0 0 0 0 0 0 0 0 0 0 0 0 0 0 0 0 0 0 0 0 0 0 0 0 0 0 0 0 0 0 0 0 0 0 0 0 0 0 0 0 0
0 0 0 0 0 0 0 0 0 0 0 0 0 0 0 0 0 0 0 0 0 0 0 0 0 0 0 0 0 0 0 0 0 0 0 0 0 0 0 0 0 0 0 0 0 0 0 0 0 0 0 0 0 0
0 0 0 0 0 0 0 0 0 0 0 0 0 0 0 0 0 0 0 0 0 0 0 0 0 0 0 0 0 0 0 0 0 0 0 0 0 0 0 0 0 0 0 0 0 0 0 0 0 0 0 0 0 0
0 0 0 0 0 0 0 0 0 0 0 0 0 0 0 0 0 0 0 0 0 0 0 0 0 0 0 0 0 0 0 0 0 0 0 0 0 0 0 0 0 0 0 0 0 0 0 0 0 0 0 0 0 0
0 0 0 0 0 0 0 0 0 0 0 0 0 0 0 0 0 0 0 0 0 0 0 0 0 0 0 0 0 0 0 0 0 0 0 0 0 0 0 0 0 0 0 0 0 0 0 0 0 0 0 0 0 0
0 0 0 0 0 0 0 0 0 0 0 0 0 0 0 0 0 0 0 0 0 0 0 0 0 0 0 0 0 0 0 0 0 0 0 0 0 0 0 0 0 0 0 0 0 0 0 0 0 0 0 0 0 0
0 0 0 0 0 0 0 0 0 0 0 0 0 0 0 0 0 0 0 0 0 0 0 0 0 0 0 0 0 0 0 0 0 0 0 0 0 0 0 0 0 0 0 0 0 0 0 0 0 0 0 0 0 0
Wind_Speed_500mb
45 48 52 54 53 52 50 50 50 52 52 52 51 50 52 50 53 60 81 76 69 28 68 52 64 64 22 26 14 15 9 8 8 13 14 15 16 21 15 24 19 25 25 16 19 15 28 25 19 23 8 7 12 14
48 48 50 50 51 54 55 55 51 53 56 57 57 54 53 52 53 55 76 75 68 64 53 51 61 71 77 77 44 28 19 12 25 11 12 6 13 9 18 20 5 15 25 12 27 19 5 62 17 50 22 16 14 17
46 46 49 50 50 51 52 52 50 52 51 56 53 51 56 58 53 54 68 64 57 58 72 83 81 69 63 69 78 46 20 31 22 37 11 10 13 11 14 18 18 14 9 12 11 27 24 32 46 25 35 21 22 20
46 48 50 52 53 57 56 54 54 54 54 52 54 50 43 49 57 58 64 66 64 37 14 55 62 53 63 68 77 82 81 58 62 52 18 13 12 19 12 16 20 10 22 20 22 29 2 25 42 32 32 24 20 18
50 51 52 52 51 49 52 53 53 52 50 50 48 47 54 56 59 61 62 69 68 65 11 15 37 49 53 48 54 70 77 70 39 10 9 13 9 9 2 3 9 15 15 13 24 8 3 8 12 28 29 27 22 25
46 45 48 47 45 46 46 46 46 47 48 48 47 49 49 46 53 43 44 73 81 76 32 14 25 53 65 63 62 65 58 41 29 14 8 6 7 5 8 12 13 6 2 3 1 8 15 17 15 14 19 21 24 25
38 38 38 41 43 43 43 45 47 50 49 47 44 41 39 39 41 39 11 2 8 35 28 9 8 17 21 22 18 27 36 24 26 25 10 16 8 12 6 16 5 11 11 12 13 19 13 14 10 17 20 26 25 25
39 40 43 44 45 45 44 43 44 45 46 41 40 37 29 32 39 51 61 48 43 42 19 5 4 4 16 8 7 8 3 6 1 2 1 2 3 3 10 4 20 20 19 18 17 10 14 26 25 24 24 24 25 22
43 46 47 49 50 49 47 46 46 43 38 35 34 34 33 29 16 17 32 36 37 28 8 3 9 15 10 5 5 4 4 5 2 3 1 3 4 12 2 8 22 25 16 25 25 24 27 28 28 25 23 21 16 15
41 41 44 46 52 54 50 48 43 36 27 24 28 12 10 12 23 28 24 13 24 15 7 1 7 4 4 6 4 5 1 2 5 2 2 5 7 3 5 8 17 24 22 31 29 16 23 27 25 22 18 14 11 11
33 35 40 38 37 36 38 36 29 23 20 15 11 14 13 15 11 10 7 4 4 4 12 8 8 2 2 3 5 3 3 2 4 4 5 5 7 2 13 20 22 23 28 18 12 19 17 17 23 19 16 12 8 8
29 28 30 27 22 16 10 12 13 18 14 15 7 6 9 3 5 6 1 3 8 4 7 5 7 5 4 3 4 2 2 3 5 3 4 6 1 8 20 22 26 28 21 20 20 20 23 24 20 14 9 7 8 11
25 28 30 30 15 14 12 4 9 13 18 6 9 3 5 5 3 10 7 4 4 9 11 8 3 5 3 5 4 2 6 2 1 4 5 4 6 18 24 28 31 27 22 20 22 21 20 17 13 8 7 9 11 12
25 22 17 17 9 8 8 3 3 13 6 5 3 6 8 7 8 6 7 6 8 10 11 8 4 4 5 3 2 2 3 2 4 4 4 3 8 23 27 29 27 26 23 21 20 18 16 11 6 6 7 8 9 10
18 19 26 31 24 16 12 10 10 21 7 12 12 9 10 3 4 9 11 8 10 13 14 6 1 2 3 4 4 5 3 5 6 4 4 4 12 26 29 30 27 26 25 25 22 17 11 6 6 7 8 8 9 11
13 12 40 38 32 19 9 12 16 15 14 13 19 5 14 3 10 13 17 11 20 26 11 4 2 1 4 2 3 3 3 3 3 3 7 2 17 25 26 26 25 26 26 23 20 15 10 9 10 10 10 10 10 10
12 15 15 25 39 26 6 12 17 20 14 11 8 14 7 4 8 10 14 23 31 14 4 4 4 5 2 3 2 1 4 6 8 8 2 6 11 19 22 26 26 27 27 24 20 15 13 13 12 12 11 11 11 10
49 29 15 9 8 14 55 25 17 17 14 14 5 12 8 9 13 10 19 29 23 13 11 5 5 4 6 7 6 6 9 16 13 7 6 6 7 13 18 21 24 24 24 22 19 17 16 15 13 13 13 11 9 10
47 40 26 21 27 14 15 19 19 12 10 3 7 15 8 9 15 24 29 31 12 5 8 5 7 7 7 5 7 21 26 19 14 14 13 11 11 14 17 21 24 24 22 21 19 17 16 16 15 15 12 11 11 11
51 57 47 34 27 15 14 16 13 12 6 7 11 15 9 9 22 23 37 47 27 10 11 9 6 12 15 39 40 40 36 28 20 18 16 16 16 17 18 19 20 21 23 23 23 22 21 20 18 16 14 13 13 12
69 77 69 60 53 32 19 14 14 11 5 4 14 14 7 9 15 29 36 27 26 13 7 21 47 58 49 43 37 35 31 24 21 17 17 19 18 23 23 24 25 27 27 27 27 25 24 20 17 17 16 18 16 15
60 59 53 39 24 17 21 27 10 9 9 9 11 15 9 7 13 18 16 22 11 27 30 39 55 62 57 48 39 35 31 27 25 25 23 21 21 19 27 29 30 31 30 29 28 27 25 24 24 21 20 17 18 18
61 49 29 31 19 25 11 22 7 17 7 14 10 7 6 8 13 12 10 14 19 52 53 57 65 58 52 40 34 27 25 27 27 26 25 26 26 25 22 25 26 30 32 30 28 29 27 23 24 24 21 19 18 18
58 44 26 22 27 11 17 21 15 14 10 10 9 9 10 14 25 9 5 11 48 55 63 68 69 70 56 45 41 36 32 26 26 25 24 27 29 27 24 24 25 27 27 27 29 29 28 28 26 26 28 23 22 21
15 30 19 15 19 18 14 14 14 11 9 8 13 8 9 17 6 7 5 24 63 69 77 77 71 63 53 52 47 43 31 31 31 31 26 24 25 27 28 28 28 29 29 33 34 33 31 28 30 31 29 28 27 23
15 22 14 8 9 8 3 9 11 7 6 12 5 15 9 5 10 6 11 42 50 65 69 64 65 71 63 52 50 48 45 37 33 32 30 25 24 25 27 28 29 30 27 30 33 35 35 33 32 31 30 27 25 24
12 8 11 13 10 8 5 3 4 1 8 9 8 11 7 10 6 7 41 45 60 62 53 49 51 52 51 51 46 42 37 34 33 32 29 25 22 21 24 28 30 28 25 23 26 29 31 32 33 33 30 27 25 27
6 8 3 27 5 6 2 2 2 3 4 8 9 12 4 3 1 17 28 56 59 58 50 45 44 44 47 45 41 39 38 36 34 30 25 27 26 20 20 22 22 20 23 28 25 24 26 28 29 29 30 28 25 24
7 22 22 7 5 4 1 3 3 6 8 9 3 4 4 5 7 31 47 61 68 65 65 60 55 51 45 46 44 36 38 45 50 51 50 54 54 47 46 36 31 26 22 22 24 30 25 15 18 23 23 24 24 24
11 32 9 4 1 2 2 4 2 6 4 6 7 11 5 9 7 17 44 63 79 71 66 59 47 57 52 60 62 50 42 46 41 44 49 59 59 54 35 34 29 24 21 18 16 19 29 29 24 20 22 28 30 28
25 14 10 7 8 3 8 11 8 17 13 6 10 16 15 5 6 14 36 56 76 70 69 66 53 55 52 60 60 61 58 54 44 31 45 50 48 43 36 40 37 32 24 21 16 12 18 35 31 40 31 26 27 23
13 6 10 7 5 9 7 11 1 9 13 7 1 24 24 10 1 21 39 53 77 74 68 63 54 53 45 50 46 43 37 43 45 39 49 44 49 49 51 34 29 24 20 16 18 16 15 23 37 41 38 36 33 29
14 11 10 13 10 3 9 20 2 4 5 4 3 9 20 12 11 25 37 45 66 65 64 58 46 44 41 45 46 46 46 48 48 46 44 44 43 44 35 34 39 28 17 12 9 12 14 17 21 30 38 37 33 29
Wind_Direction_500mb
284 280 281 278 278 277 278 274 270 267 265 265 264 262 260 254 243 244 249 250 248 253 253 244 244 235 227 206 214 169 158 187 180 221 206 215 228 213 220 222 180 179 177 203 218 238 252 142 121 203 216 160 186 206
285 287 284 282 279 279 281 277 275 273 270 265 262 260 257 256 249 242 251 249 249 258 265 260 259 258 245 240 242 220 242 189 201 190 217 205 226 199 228 235 155 216 209 196 198 210 149 185 205 206 198 172 198 208
286 288 288 284 281 279 278 276 273 274 272 267 265 263 260 257 255 248 252 256 256 258 267 266 257 257 263 250 246 243 226 218 221 228 212 206 222 173 202 227 237 239 176 229 196 242 224 206 219 224 220 217 229 232
289 291 290 287 284 283 281 278 276 271 265 268 270 275 269 267 259 254 251 251 246 249 237 257 254 254 256 246 243 250 255 249 235 225 228 227 222 187 200 247 217 231 149 214 253 267 304 240 221 228 224 223 213 200
287 287 285 285 285 285 286 286 284 282 279 275 268 270 273 268 267 257 255 254 245 235 267 272 254 249 254 251 245 242 246 244 234 228 234 253 258 232 119 134 232 186 213 229 255 16 270 109 194 213 216 212 202 191
286 288 288 288 289 287 285 284 283 282 280 277 277 277 280 285 282 271 253 254 247 243 248 248 254 255 252 254 247 246 245 251 233 226 217 182 179 214 214 248 268 151 187 252 285 139 118 126 130 154 170 174 180 183
287 291 294 295 294 289 287 284 282 279 277 277 273 275 274 283 289 265 244 272 263 225 228 245 240 249 247 241 245 239 240 233 234 255 256 268 209 209 223 250 128 143 160 146 147 133 120 137 125 150 164 158 166 168
293 296 300 294 294 294 289 285 286 286 280 274 272 269 269 275 278 278 278 265 263 285 248 257 176 193 188 184 174 185 188 195 262 265 297 215 143 229 240 189 133 141 145 138 152 161 148 141 141 146 156 159 159 156
293 296 300 296 293 289 286 284 284 288 275 269 270 265 269 273 253 264 272 261 242 237 276 257 242 256 179 115 118 124 186 216 324 211 219 273 168 223 295 146 168 170 172 158 131 135 136 137 139 151 162 163 163 167
297 297 297 300 294 284 280 281 281 276 265 268 261 239 229 219 247 283 281 226 197 206 248 306 335 194 161 158 124 149 336 221 237 139 348 232 259 72 62 127 163 160 152 143 132 133 152 138 152 160 166 165 182 201
305 305 311 314 316 297 265 271 268 255 246 248 205 209 231 269 296 229 243 230 90 102 15 9 13 325 63 181 168 216 170 166 244 99 238 223 264 114 142 133 145 148 146 149 138 144 141 149 154 161 160 165 186 223
311 312 314 315 324 322 312 283 265 234 222 196 199 233 266 247 251 268 47 53 40 52 359 0 349 27 2 72 108 134 198 169 251 122 257 253 55 146 154 147 148 152 150 141 130 123 128 139 141 144 152 189 228 255
328 320 316 305 314 316 318 304 281 257 190 205 198 164 4 357 256 1 345 55 58 1 5 348 338 348 36 58 82 154 203 197 205 227 253 297 114 160 171 165 159 155 148 137 134 136 133 134 142 160 212 245 254 262
327 352 5 7 5 332 316 326 158 136 126 93 60 55 24 33 44 13 337 334 332 321 346 353 347 356 342 77 351 160 65 248 248 254 256 41 193 178 170 166 168 163 157 157 154 153 151 153 180 232 237 246 253 262
46 49 42 31 16 26 48 45 199 181 114 62 33 45 44 359 355 339 333 334 349 332 327 316 314 324 28 91 42 127 170 241 234 281 334 339 186 177 173 175 176 178 179 176 174 172 179 212 232 238 242 243 248 255
6 23 36 30 29 27 54 35 132 89 64 54 46 49 354 28 359 6 4 348 345 336 315 263 295 326 60 34 218 241 271 288 12 331 322 202 178 183 186 185 185 188 187 185 189 197 219 235 234 235 242 250 248 258
350 52 356 27 34 28 97 89 55 53 58 48 36 25 21 293 293 326 338 343 346 336 353 300 353 15 267 258 284 283 303 336 326 316 222 182 192 194 193 192 193 193 195 199 207 222 234 232 230 234 246 251 256 249
30 358 303 321 356 67 55 50 70 62 63 41 36 354 353 8 344 342 348 350 357 360 348 25 326 356 7 352 356 358 322 320 304 266 250 237 222 207 202 200 199 200 205 211 221 230 230 230 231 235 241 245 249 243
27 37 70 68 57 72 59 46 52 90 68 45 359 2 340 334 355 342 339 344 355 346 336 17 46 17 347 352 317 319 329 321 312 303 276 258 240 217 207 203 203 209 214 224 229 231 231 230 230 230 233 242 243 241
49 60 63 63 71 64 69 47 50 78 76 14 355 350 345 355 359 14 28 33 32 35 30 32 23 320 303 306 309 307 311 309 285 296 284 271 257 238 227 222 221 223 227 228 227 229 229 231 227 228 239 244 239 240
65 65 66 67 56 59 68 42 52 56 37 39 1 356 344 20 35 36 28 33 45 36 1 338 327 328 324 316 310 310 316 306 284 269 292 304 297 253 242 237 233 232 232 232 233 233 232 237 227 232 238 237 242 244
58 56 51 45 51 59 54 26 30 6 2 352 354 7 29 24 2 8 22 41 48 4 340 326 332 337 333 332 317 306 305 300 292 274 278 278 293 275 253 249 244 243 241 241 241 241 241 239 236 240 241 247 240 247
57 51 43 35 56 37 17 2 26 10 42 335 352 25 9 359 359 1 72 47 10 351 346 342 344 348 345 348 346 338 324 310 298 287 280 277 281 278 276 261 256 252 250 250 249 246 245 243 233 238 241 242 245 247
64 57 43 36 32 10 9 17 12 3 21 21 17 357 352 329 341 60 53 357 350 347 348 347 352 353 357 358 355 358 353 336 322 309 296 285 282 283 279 273 266 262 259 257 252 251 247 242 241 231 241 243 242 248
39 13 21 1 13 12 18 357 351 18 2 352 346 355 348 341 42 51 26 339 340 343 348 350 352 355 350 349 349 351 344 337 335 324 321 309 295 284 277 274 271 267 260 256 254 255 253 247 240 242 243 244 246 250
62 15 36 344 326 36 354 1 5 328 328 332 347 317 337 20 50 21 357 336 339 345 348 349 348 348 354 359 350 353 351 343 330 324 330 327 316 305 300 291 288 284 278 267 257 254 252 249 245 244 244 243 237 249
45 326 352 356 331 326 334 305 303 91 16 357 330 341 11 58 7 321 350 354 348 353 355 357 360 0 354 356 0 359 355 355 349 339 337 336 332 318 304 299 297 297 290 275 262 255 252 248 245 242 241 239 235 232
30 349 336 326 328 341 180 1 54 41 277 338 323 26 53 147 208 355 356 4 1 3 5 8 10 12 14 13 9 9 12 8 4 8 16 21 14 1 347 334 321 310 288 283 277 265 256 250 244 238 233 231 229 226
339 336 337 305 299 262 337 150 198 68 353 343 127 281 283 171 131 20 14 8 5 6 7 4 6 4 2 9 17 12 10 11 8 9 9 5 5 3 347 338 331 321 290 274 250 257 265 262 249 236 227 220 213 208
332 338 316 293 72 296 66 2 334 142 86 46 27 8 352 199 224 341 4 5 6 5 9 9 0 5 5 4 4 13 17 17 9 0 351 351 350 354 351 348 334 320 312 293 273 241 219 224 225 214 211 202 199 194
315 321 304 259 262 216 328 316 278 199 179 136 46 27 9 331 241 316 351 0 2 5 8 7 8 6 5 6 3 0 1 5 359 4 8 355 350 354 340 338 325 320 288 276 280 267 225 210 211 214 216 198 192 198
298 294 313 303 302 302 346 2 192 186 198 211 99 27 18 15 168 353 350 353 358 5 8 6 5 5 1 2 7 8 3 355 357 9 6 351 349 338 325 327 338 326 324 284 260 256 240 222 216 213 216 220 221 224
290 315 310 297 301 298 333 351 77 150 149 143 109 40 25 14 16 354 346 348 359 4 7 8 5 5 4 4 3 5 5 1 359 354 358 355 353 348 351 8 351 337 308 292 263 240 229 220 214 210 211 211 211 215
Wind_Speed_850mb
45 48 52 54 53 52 50 50 50 52 52 52 51 50 52 50 53 60 81 76 69 28 68 52 64 64 22 26 14 15 9 8 8 13 14 15 16 21 15 24 19 25 25 16 19 15 28 25 19 23 8 7 12 14
48 48 50 50 51 54 55 55 51 53 56 57 57 54 53 52 53 55 76 75 68 64 53 51 61 71 77 77 44 28 19 12 25 11 12 6 13 9 18 20 5 15 25 12 27 19 5 62 17 50 22 16 14 17
46 46 49 50 50 51 52 52 50 52 51 56 53 51 56 58 53 54 68 64 57 58 72 83 81 69 63 69 78 46 20 31 22 37 11 10 13 11 14 18 18 14 9 12 11 27 24 32 46 25 35 21 22 20
46 48 50 52 53 57 56 54 54 54 54 52 54 50 43 49 57 58 64 66 64 37 14 55 62 53 63 68 77 82 81 58 62 52 18 13 12 19 12 16 20 10 22 20 22 29 2 25 42 32 32 24 20 18
50 51 52 52 51 49 52 53 53 52 50 50 48 47 54 56 59 61 62 69 68 65 11 15 37 49 53 48 54 70 77 70 39 10 9 13 9 9 2 3 9 15 15 13 24 8 3 8 12 28 29 27 22 25
46 45 48 47 45 46 46 46 46 47 48 48 47 49 49 46 53 43 44 73 81 76 32 14 25 53 65 63 62 65 58 41 29 14 8 6 7 5 8 12 13 6 2 3 1 8 15 17 15 14 19 21 24 25
38 38 38 41 43 43 43 45 47 50 49 47 44 41 39 39 41 39 11 2 8 35 28 9 8 17 21 22 18 27 36 24 26 25 10 16 8 12 6 16 5 11 11 12 13 19 13 14 10 17 20 26 25 25
39 40 43 44 45 45 44 43 44 45 46 41 40 37 29 32 39 51 61 48 43 42 19 5 4 4 16 8 7 8 3 6 1 2 1 2 3 3 10 4 20 20 19 18 17 10 14 26 25 24 24 24 25 22
43 46 47 49 50 49 47 46 46 43 38 35 34 34 33 29 16 17 32 36 37 28 8 3 9 15 10 5 5 4 4 5 2 3 1 3 4 12 2 8 22 25 16 25 25 24 27 28 28 25 23 21 16 15
41 41 44 46 52 54 50 48 43 36 27 24 28 12 10 12 23 28 24 13 24 15 7 1 7 4 4 6 4 5 1 2 5 2 2 5 7 3 5 8 17 24 22 31 29 16 23 27 25 22 18 14 11 11
33 35 40 38 37 36 38 36 29 23 20 15 11 14 13 15 11 10 7 4 4 4 12 8 8 2 2 3 5 3 3 2 4 4 5 5 7 2 13 20 22 23 28 18 12 19 17 17 23 19 16 12 8 8
29 28 30 27 22 16 10 12 13 18 14 15 7 6 9 3 5 6 1 3 8 4 7 5 7 5 4 3 4 2 2 3 5 3 4 6 1 8 20 22 26 28 21 20 20 20 23 24 20 14 9 7 8 11
25 28 30 30 15 14 12 4 9 13 18 6 9 3 5 5 3 10 7 4 4 9 11 8 3 5 3 5 4 2 6 2 1 4 5 4 6 18 24 28 31 27 22 20 22 21 20 17 13 8 7 9 11 12
25 22 17 17 9 8 8 3 3 13 6 5 3 6 8 7 8 6 7 6 8 10 11 8 4 4 5 3 2 2 3 2 4 4 4 3 8 23 27 29 27 26 23 21 20 18 16 11 6 6 7 8 9 10
18 19 26 31 24 16 12 10 10 21 7 12 12 9 10 3 4 9 11 8 10 13 14 6 1 2 3 4 4 5 3 5 6 4 4 4 12 26 29 30 27 26 25 25 22 17 11 6 6 7 8 8 9 11
13 12 40 38 32 19 9 12 16 15 14 13 19 5 14 3 10 13 17 11 20 26 11 4 2 1 4 2 3 3 3 3 3 3 7 2 17 25 26 26 25 26 26 23 20 15 10 9 10 10 10 10 10 10
12 15 15 25 39 26 6 12 17 20 14 11 8 14 7 4 8 10 14 23 31 14 4 4 4 5 2 3 2 1 4 6 8 8 2 6 11 19 22 26 26 27 27 24 20 15 13 13 12 12 11 11 11 10
49 29 15 9 8 14 55 25 17 17 14 14 5 12 8 9 13 10 19 29 23 13 11 5 5 4 6 7 6 6 9 16 13 7 6 6 7 13 18 21 24 24 24 22 19 17 16 15 13 13 13 11 9 10
47 40 26 21 27 14 15 19 19 12 10 3 7 15 8 9 15 24 29 31 12 5 8 5 7 7 7 5 7 21 26 19 14 14 13 11 11 14 17 21 24 24 22 21 19 17 16 16 15 15 12 11 11 11
51 57 47 34 27 15 14 16 13 12 6 7 11 15 9 9 22 23 37 47 27 10 11 9 6 12 15 39 40 40 36 28 20 18 16 16 16 17 18 19 20 21 23 23 23 22 21 20 18 16 14 13 13 12
69 77 69 60 53 32 19 14 14 11 5 4 14 14 7 9 15 29 36 27 26 13 7 21 47 58 49 43 37 35 31 24 21 17 17 19 18 23 23 24 25 27 27 27 27 25 24 20 17 17 16 18 16 15
60 59 53 39 24 17 21 27 10 9 9 9 11 15 9 7 13 18 16 22 11 27 30 39 55 62 57 48 39 35 31 27 25 25 23 21 21 19 27 29 30 31 30 29 28 27 25 24 24 21 20 17 18 18
61 49 29 31 19 25 11 22 7 17 7 14 10 7 6 8 13 12 10 14 19 52 53 57 65 58 52 40 34 27 25 27 27 26 25 26 26 25 22 25 26 30 32 30 28 29 27 23 24 24 21 19 18 18
58 44 26 22 27 11 17 21 15 14 10 10 9 9 10 14 25 9 5 11 48 55 63 68 69 70 56 45 41 36 32 26 26 25 24 27 29 27 24 24 25 27 27 27 29 29 28 28 26 26 28 23 22 21
15 30 19 15 19 18 14 14 14 11 9 8 13 8 9 17 6 7 5 24 63 69 77 77 71 63 53 52 47 43 31 31 31 31 26 24 25 27 28 28 28 29 29 33 34 33 31 28 30 31 29 28 27 23
15 22 14 8 9 8 3 9 11 7 6 12 5 15 9 5 10 6 11 42 50 65 69 64 65 71 63 52 50 48 45 37 33 32 30 25 24 25 27 28 29 30 27 30 33 35 35 33 32 31 30 27 25 24
12 8 11 13 10 8 5 3 4 1 8 9 8 11 7 10 6 7 41 45 60 62 53 49 51 52 51 51 46 42 37 34 33 32 29 25 22 21 24 28 30 28 25 23 26 29 31 32 33 33 30 27 25 27
6 8 3 27 5 6 2 2 2 3 4 8 9 12 4 3 1 17 28 56 59 58 50 45 44 44 47 45 41 39 38 36 34 30 25 27 26 20 20 22 22 20 23 28 25 24 26 28 29 29 30 28 25 24
7 22 22 7 5 4 1 3 3 6 8 9 3 4 4 5 7 31 47 61 68 65 65 60 55 51 45 46 44 36 38 45 50 51 50 54 54 47 46 36 31 26 22 22 24 30 25 15 18 23 23 24 24 24
11 32 9 4 1 2 2 4 2 6 4 6 7 11 5 9 7 17 44 63 79 71 66 59 47 57 52 60 62 50 42 46 41 44 49 59 59 54 35 34 29 24 21 18 16 19 29 29 24 20 22 28 30 28
25 14 10 7 8 3 8 11 8 17 13 6 10 16 15 5 6 14 36 56 76 70 69 66 53 55 52 60 60 61 58 54 44 31 45 50 48 43 36 40 37 32 24 21 16 12 18 35 31 40 31 26 27 23
13 6 10 7 5 9 7 11 1 9 13 7 1 24 24 10 1 21 39 53 77 74 68 63 54 53 45 50 46 43 37 43 45 39 49 44 49 49 51 34 29 24 20 16 18 16 15 23 37 41 38 36 33 29
14 11 10 13 10 3 9 20 2 4 5 4 3 9 20 12 11 25 37 45 66 65 64 58 46 44 41 45 46 46 46 48 48 46 44 44 43 44 35 34 39 28 17 12 9 12 14 17 21 30 38 37 33 29
Wind_Direction_850mb
284 280 281 278 278 277 278 274 270 267 265 265 264 262 260 254 243 244 249 250 248 253 253 244 244 235 227 206 214 169 158 187 180 221 206 215 228 213 220 222 180 179 177 203 218 238 252 142 121 203 216 160 186 206
285 287 284 282 279 279 281 277 275 273 270 265 262 260 257 256 249 242 251 249 249 258 265 260 259 258 245 240 242 220 242 189 201 190 217 205 226 199 228 235 155 216 209 196 198 210 149 185 205 206 198 172 198 208
286 288 288 284 281 279 278 276 273 274 272 267 265 263 260 257 255 248 252 256 256 258 267 266 257 257 263 250 246 243 226 218 221 228 212 206 222 173 202 227 237 239 176 229 196 242 224 206 219 224 220 217 229 232
289 291 290 287 284 283 281 278 276 271 265 268 270 275 269 267 259 254 251 251 246 249 237 257 254 254 256 246 243 250 255 249 235 225 228 227 222 187 200 247 217 231 149 214 253 267 304 240 221 228 224 223 213 200
287 287 285 285 285 285 286 286 284 282 279 275 268 270 273 268 267 257 255 254 245 235 267 272 254 249 254 251 245 242 246 244 234 228 234 253 258 232 119 134 232 186 213 229 255 16 270 109 194 213 216 212 202 191
286 288 288 288 289 287 285 284 283 282 280 277 277 277 280 285 282 271 253 254 247 243 248 248 254 255 252 254 247 246 245 251 233 226 217 182 179 214 214 248 268 151 187 252 285 139 118 126 130 154 170 174 180 183
287 291 294 295 294 289 287 284 282 279 277 277 273 275 274 283 289 265 244 272 263 225 228 245 240 249 247 241 245 239 240 233 234 255 256 268 209 209 223 250 128 143 160 146 147 133 120 137 125 150 164 158 166 168
293 296 300 294 294 294 289 285 286 286 280 274 272 269 269 275 278 278 278 265 263 285 248 257 176 193 188 184 174 185 188 195 262 265 297 215 143 229 240 189 133 141 145 138 152 161 148 141 141 146 156 159 159 156
293 296 300 296 293 289 286 284 284 288 275 269 270 265 269 273 253 264 272 261 242 237 276 257 242 256 179 115 118 124 186 216 324 211 219 273 168 223 295 146 168 170 172 158 131 135 136 137 139 151 162 163 163 167
297 297 297 300 294 284 280 281 281 276 265 268 261 239 229 219 247 283 281 226 197 206 248 306 335 194 161 158 124 149 336 221 237 139 348 232 259 72 62 127 163 160 152 143 132 133 152 138 152 160 166 165 182 201
305 305 311 314 316 297 265 271 268 255 246 248 205 209 231 269 296 229 243 230 90 102 15 9 13 325 63 181 168 216 170 166 244 99 238 223 264 114 142 133 145 148 146 149 138 144 141 149 154 161 160 165 186 223
311 312 314 315 324 322 312 283 265 234 222 196 199 233 266 247 251 268 47 53 40 52 359 0 349 27 2 72 108 134 198 169 251 122 257 253 55 146 154 147 148 152 150 141 130 123 128 139 141 144 152 189 228 255
328 320 316 305 314 316 318 304 281 257 190 205 198 164 4 357 256 1 345 55 58 1 5 348 338 348 36 58 82 154 203 197 205 227 253 297 114 160 171 165 159 155 148 137 134 136 133 134 142 160 212 245 254 262
327 352 5 7 5 332 316 326 158 136 126 93 60 55 24 33 44 13 337 334 332 321 346 353 347 356 342 77 351 160 65 248 248 254 256 41 193 178 170 166 168 163 157 157 154 153 151 153 180 232 237 246 253 262
46 49 42 31 16 26 48 45 199 181 114 62 33 45 44 359 355 339 333 334 349 332 327 316 314 324 28 91 42 127 170 241 234 281 334 339 186 177 173 175 176 178 179 176 174 172 179 212 232 238 242 243 248 255
6 23 36 30 29 27 54 35 132 89 64 54 46 49 354 28 359 6 4 348 345 336 315 263 295 326 60 34 218 241 271 288 12 331 322 202 178 183 186 185 185 188 187 185 189 197 219 235 234 235 242 250 248 258
350 52 356 27 34 28 97 89 55 53 58 48 36 25 21 293 293 326 338 343 346 336 353 300 353 15 267 258 284 283 303 336 326 316 222 182 192 194 193 192 193 193 195 199 207 222 234 232 230 234 246 251 256 249
30 358 303 321 356 67 55 50 70 62 63 41 36 354 353 8 344 342 348 350 357 360 348 25 326 356 7 352 356 358 322 320 304 266 250 237 222 207 202 200 199 200 205 211 221 230 230 230 231 235 241 245 249 243
27 37 70 68 57 72 59 46 52 90 68 45 359 2 340 334 355 342 339 344 355 346 336 17 46 17 347 352 317 319 329 321 312 303 276 258 240 217 207 203 203 209 214 224 229 231 231 230 230 230 233 242 243 241
49 60 63 63 71 64 69 47 50 78 76 14 355 350 345 355 359 14 28 33 32 35 30 32 23 320 303 306 309 307 311 309 285 296 284 271 257 238 227 222 221 223 227 228 227 229 229 231 227 228 239 244 239 240
65 65 66 67 56 59 68 42 52 56 37 39 1 356 344 20 35 36 28 33 45 36 1 338 327 328 324 316 310 310 316 306 284 269 292 304 297 253 242 237 233 232 232 232 233 233 232 237 227 232 238 237 242 244
58 56 51 45 51 59 54 26 30 6 2 352 354 7 29 24 2 8 22 41 48 4 340 326 332 337 333 332 317 306 305 300 292 274 278 278 293 275 253 249 244 243 241 241 241 241 241 239 236 240 241 247 240 247
57 51 43 35 56 37 17 2 26 10 42 335 352 25 9 359 359 1 72 47 10 351 346 342 344 348 345 348 346 338 324 310 298 287 280 277 281 278 276 261 256 252 250 250 249 246 245 243 233 238 241 242 245 247
64 57 43 36 32 10 9 17 12 3 21 21 17 357 352 329 341 60 53 357 350 347 348 347 352 353 357 358 355 358 353 336 322 309 296 285 282 283 279 273 266 262 259 257 252 251 247 242 241 231 241 243 242 248
39 13 21 1 13 12 18 357 351 18 2 352 346 355 348 341 42 51 26 339 340 343 348 350 352 355 350 349 349 351 344 337 335 324 321 309 295 284 277 274 271 267 260 256 254 255 253 247 240 242 243 244 246 250
62 15 36 344 326 36 354 1 5 328 328 332 347 317 337 20 50 21 357 336 339 345 348 349 348 348 354 359 350 353 351 343 330 324 330 327 316 305 300 291 288 284 278 267 257 254 252 249 245 244 244 243 237 249
45 326 352 356 331 326 334 305 303 91 16 357 330 341 11 58 7 321 350 354 348 353 355 357 360 0 354 356 0 359 355 355 349 339 337 336 332 318 304 299 297 297 290 275 262 255 252 248 245 242 241 239 235 232
30 349 336 326 328 341 180 1 54 41 277 338 323 26 53 147 208 355 356 4 1 3 5 8 10 12 14 13 9 9 12 8 4 8 16 21 14 1 347 334 321 310 288 283 277 265 256 250 244 238 233 231 229 226
339 336 337 305 299 262 337 150 198 68 353 343 127 281 283 171 131 20 14 8 5 6 7 4 6 4 2 9 17 12 10 11 8 9 9 5 5 3 347 338 331 321 290 274 250 257 265 262 249 236 227 220 213 208
332 338 316 293 72 296 66 2 334 142 86 46 27 8 352 199 224 341 4 5 6 5 9 9 0 5 5 4 4 13 17 17 9 0 351 351 350 354 351 348 334 320 312 293 273 241 219 224 225 214 211 202 199 194
315 321 304 259 262 216 328 316 278 199 179 136 46 27 9 331 241 316 351 0 2 5 8 7 8 6 5 6 3 0 1 5 359 4 8 355 350 354 340 338 325 320 288 276 280 267 225 210 211 214 216 198 192 198
298 294 313 303 302 302 346 2 192 186 198 211 99 27 18 15 168 353 350 353 358 5 8 6 5 5 1 2 7 8 3 355 357 9 6 351 349 338 325 327 338 326 324 284 260 256 240 222 216 213 216 220 221 224
290 315 310 297 301 298 333 351 77 150 149 143 109 40 25 14 16 354 346 348 359 4 7 8 5 5 4 4 3 5 5 1 359 354 358 355 353 348 351 8 351 337 308 292 263 240 229 220 214 210 211 211 211 215